|  軌道要素
Epoch 2024 Oct. 17.0 TT = JDT 2460600.5
T 2022 Jan.  9.96096 TT                                 Pike
q   3.5562116            (2000.0)            P               Q
z  -0.0007877      Peri.  171.69644     -0.26053535     -0.66621614
 +/-0.0000002      Node   290.73324     +0.83732556     +0.20438712
e   1.0028014      Incl.   48.34454     +0.48063213     -0.71720427
From 6551 observations 2019 June 10-2024 Dec. 30, mean residual 0".8.
 
 |